Wind_Speed
3 3 3 3 4 4 4 4 4 5 5 6 5 5 5 5 5 5 4 4 3 3 2 2 2 2 2 2 2 2 3 2 2 2 2 2 2 2 2 2 1 2 2 2 2 2 3 3 4
2 3 3 4 4 4 4 4 5 5 5 5 5 5 5 5 5 5 4 4 3 2 2 2 2 3 3 2 2 2 2 2 2 2 2 2 2 2 2 1 0 1 2 2 2 2 3 3 3
2 3 3 4 4 5 5 5 6 5 5 5 5 5 5 5 5 5 4 4 3 2 2 2 3 3 3 2 2 3 3 2 2 2 3 2 2 3 3 2 2 1 1 2 2 2 3 3 4
2 3 3 3 4 5 5 5 5 5 5 5 6 5 6 6 6 6 5 4 3 3 2 2 2 3 3 3 3 4 4 4 3 3 3 3 4 4 4 4 3 3 2 3 3 4 4 4 4
2 2 3 3 3 4 4 5 5 5 5 5 6 6 6 6 6 6 5 5 4 3 3 3 3 3 3 4 4 5 5 5 5 5 5 5 5 5 5 5 4 4 4 4 4 4 4 5 5
2 2 2 3 3 4 4 5 5 5 5 5 6 5 5 6 6 5 5 5 5 4 4 4 4 4 4 5 5 6 6 6 6 6 6 5 5 6 5 5 4 4 4 5 6 6 6 5 6
2 2 3 3 3 3 4 4 4 5 5 5 5 5 5 5 5 5 5 5 5 5 5 5 5 5 5 5 5 7 7 7 7 7 6 6 7 7 6 6 5 5 6 6 6 7 7 7 7
2 2 3 3 3 3 4 4 4 5 5 5 5 6 5 5 5 5 6 6 6 6 5 5 6 6 6 6 6 6 8 8 9 9 8 8 8 7 7 7 7 7 7 8 8 8 8 8 8
2 3 3 3 3 4 3 4 4 5 5 6 6 6 5 5 6 6 6 7 7 7 6 6 7 7 7 6 7 7 8 9 9 9 9 8 8 8 8 8 8 8 9 9 9 9 9 9 9
3 4 4 4 4 4 4 4 4 5 6 6 6 6 6 6 6 7 7 7 7 7 7 7 7 8 8 8 8 8 9 9 9 10 10 10 10 9 9 9 9 9 9 9 9 9 9 10 10
4 4 4 4 5 5 5 5 5 5 6 6 6 7 7 7 8 8 8 7 7 7 8 8 8 8 8 9 9 9 9 10 10 10 11 11 11 11 11 11 11 10 10 10 11 11 11 10 11
4 4 4 5 5 5 6 6 6 6 6 6 7 7 8 8 8 8 8 8 8 8 8 8 8 8 8 9 9 9 10 10 10 11 11 12 12 12 12 12 12 11 11 12 12 12 12 12 11
5 5 5 5 5 5 5 6 7 7 7 7 8 8 8 9 9 9 9 9 9 8 8 8 8 8 9 9 9 10 10 10 10 11 11 12 12 13 13 13 13 13 13 13 13 12 12 13 12
6 6 6 6 6 6 6 6 7 7 8 8 8 9 9 9 9 10 10 9 9 9 9 9 9 9 9 10 10 10 10 10 10 11 11 11 12 12 12 13 13 13 13 13 13 13 13 12 13
7 7 7 7 7 7 7 7 7 7 8 8 9 9 10 10 10 9 10 9 9 10 10 10 10 10 10 11 11 11 11 10 11 11 12 12 12 12 13 13 12 13 13 13 13 13 13 13 14
8 9 9 8 8 8 8 7 7 8 8 9 9 10 10 10 10 10 10 10 10 10 10 11 11 11 11 11 11 12 12 12 12 12 12 12 12 13 13 12 12 13 13 13 13 13 13 13 14
10 10 10 9 9 9 9 9 9 9 9 10 10 11 11 11 11 11 11 11 11 11 11 11 12 12 12 12 12 12 12 13 13 13 13 13 14 13 13 13 13 13 13 14 13 13 14 14 14
11 12 11 10 11 11 11 11 11 11 11 11 11 12 12 12 12 12 12 12 12 12 12 12 13 13 14 14 13 13 13 14 14 14 14 14 14 14 14 13 13 13 14 14 14 14 14 14 14
12 13 12 12 12 12 12 12 12 12 13 13 13 13 13 13 13 13 14 14 14 14 14 14 14 15 14 14 14 14 14 13 13 13 14 14 14 14 14 14 13 14 14 14 14 14 14 14 15
13 13 13 13 14 14 14 14 14 14 14 14 13 13 13 14 14 14 15 15 16 16 16 16 16 16 15 15 15 15 15 14 14 14 15 15 14 14 14 14 14 14 14 14 14 15 15 15 16
12 13 13 14 14 14 15 15 15 14 15 15 15 15 15 15 15 16 16 17 17 18 18 18 18 17 17 17 16 16 16 16 15 15 15 15 15 15 15 15 15 16 16 16 16 16 16 16 16
12 13 14 14 15 15 15 15 16 16 16 16 16 17 17 17 17 17 18 18 19 19 19 20 19 19 18 18 18 18 17 17 16 16 16 16 16 16 16 17 17 17 17 18 18 18 18 18 17
12 13 14 14 15 15 16 17 16 16 17 17 17 18 19 18 18 18 19 20 20 21 21 21 21 21 20 20 20 20 19 19 18 18 18 17 18 18 17 18 18 18 18 18 18 18 18 18 19
13 13 14 15 15 16 16 17 17 17 17 18 18 19 19 20 20 21 21 21 21 22 22 22 23 23 23 22 21 21 20 20 20 20 19 20 20 20 20 20 19 19 19 19 19 19 19 19 19
12 13 14 15 16 16 16 17 17 17 17 18 18 19 20 21 21 22 22 22 22 22 22 23 23 24 24 24 23 23 22 22 22 22 22 22 22 22 22 21 21 20 20 20 20 21 21 20 20
13 14 14 16 17 17 16 16 16 17 17 18 19 19 21 21 21 21 22 22 22 22 22 23 23 24 24 25 25 24 24 24 24 24 24 24 24 24 23 23 23 23 22 22 21 22 22 22 22
15 15 16 17 18 18 18 18 18 18 19 19 19 20 21 21 22 22 22 22 22 22 23 23 23 24 25 25 26 26 26 26 26 26 26 26 26 26 25 25 25 25 24 24 23 23 23 23 23
17 16 17 18 19 19 20 19 20 20 20 20 20 20 21 21 22 22 22 23 23 23 24 24 24 25 25 25 26 26 26 27 26 27 27 27 27 27 27 26 26 26 26 26 26 25 25 25 24
18 18 18 20 20 20 21 20 21 21 21 21 21 21 22 22 22 22 23 23 23 23 24 24 25 26 26 26 27 27 27 27 27 27 27 28 28 28 28 28 28 28 28 28 28 27 27 26 26
19 19 19 20 20 20 21 21 22 22 22 22 22 22 22 22 23 22 23 24 24 24 24 24 25 25 26 27 27 28 28 28 28 28 28 28 28 29 29 29 29 30 30 29 29 28 28 28 27
Wind_Direction
175 176 175 175 175 182 189 185 186 190 188 190 194 194 189 187 189 191 190 188 190 192 181 184 187 185 186 182 180 180 182 183 181 181 184 186 185 182 185 192 208 214 201 207 214 221 237 236 228
185 188 189 189 190 198 199 192 193 195 192 194 199 200 192 195 196 193 191 195 196 206 195 190 187 183 187 194 192 193 190 195 195 198 195 201 216 219 215 240 235 175 188 196 203 218 238 237 234
179 188 192 195 200 204 205 202 196 197 198 200 203 206 200 202 199 199 199 202 203 200 197 187 180 183 189 207 213 216 223 225 221 215 206 227 243 247 243 246 237 203 216 228 236 232 237 239 240
190 196 202 207 210 214 212 205 200 200 201 204 206 208 206 206 206 210 208 207 206 212 212 198 198 206 216 228 227 228 233 237 236 228 228 242 247 249 254 249 241 232 237 242 245 239 241 241 243
178 190 203 208 205 209 211 207 204 204 198 201 207 213 209 206 209 212 213 213 215 224 225 225 225 229 238 241 241 242 250 249 247 248 251 249 247 250 257 249 237 240 240 249 250 244 248 257 258
162 180 199 209 207 207 209 205 206 201 195 200 208 214 214 210 214 218 223 225 231 240 239 235 236 239 244 250 248 248 244 246 246 253 251 254 254 256 256 253 251 253 254 257 252 252 255 262 263
162 185 195 203 211 208 210 207 210 200 197 200 206 210 210 215 220 223 229 232 239 244 247 245 242 248 250 252 251 248 249 252 255 259 256 259 260 260 258 258 260 264 265 263 261 261 261 261 263
192 209 205 198 201 203 209 208 216 207 207 213 219 218 213 218 227 233 236 236 238 242 246 248 249 254 257 253 250 250 253 256 261 263 266 266 264 263 263 267 264 265 265 266 269 268 269 265 266
212 217 212 205 208 215 216 219 216 215 217 223 231 228 232 226 233 238 240 240 242 245 248 250 254 258 259 257 257 258 261 264 266 264 264 264 264 262 262 265 266 266 267 268 270 270 269 270 272
228 230 228 222 219 219 220 223 219 219 221 230 235 243 246 242 246 245 243 247 250 254 253 255 259 262 262 263 265 267 269 272 273 271 268 266 265 263 264 265 265 265 264 266 267 268 274 275 275
236 237 239 236 232 229 228 229 228 225 230 233 237 239 247 249 250 250 248 250 256 261 259 259 261 263 264 265 267 269 270 272 275 275 272 269 268 268 268 266 266 264 265 264 265 268 271 274 274
244 246 249 247 244 241 240 241 239 240 241 244 244 246 251 249 255 250 251 253 258 259 259 261 263 263 265 267 268 269 271 274 276 276 276 273 270 269 270 269 272 268 269 269 270 270 271 272 273
252 254 254 252 250 248 249 249 248 248 249 251 256 258 260 260 264 259 253 256 260 258 258 261 264 266 267 267 269 270 271 273 275 277 278 276 274 273 273 274 274 274 275 274 271 270 271 271 270
257 255 256 254 253 252 252 252 253 253 255 258 259 260 261 262 263 261 258 260 260 258 260 262 263 268 271 271 272 273 272 273 274 276 277 276 274 273 273 275 277 277 278 276 274 271 270 271 271
258 259 258 257 258 259 257 255 259 258 260 262 264 266 267 264 261 260 261 264 265 264 262 263 265 268 271 273 274 275 276 277 277 276 275 274 273 273 274 275 277 277 278 277 275 274 271 270 271
259 259 260 261 261 261 259 261 263 262 263 264 266 270 271 269 265 263 264 264 265 267 268 268 268 270 273 274 276 278 279 280 280 278 275 272 272 274 274 274 276 277 276 275 274 273 271 270 268
263 261 260 261 263 262 263 265 263 263 264 266 269 270 270 269 266 265 265 264 264 266 268 271 274 274 275 276 276 278 279 279 280 279 277 275 272 272 273 275 276 276 276 275 274 273 270 269 267
268 264 260 260 262 262 264 265 265 265 264 266 269 269 269 268 267 266 266 265 266 267 270 272 275 278 278 279 280 280 279 279 280 280 278 276 276 272 271 274 275 275 276 276 274 271 269 267 267
268 265 261 259 260 261 261 261 262 263 263 266 268 268 268 268 266 266 266 267 268 269 272 273 276 277 276 277 279 283 281 281 278 279 277 277 276 274 272 274 276 276 276 276 275 272 272 269 268
270 265 262 260 260 261 261 261 262 262 265 267 267 267 268 268 267 267 266 267 269 270 272 274 276 275 275 274 277 281 282 281 279 279 276 273 273 273 273 275 276 277 276 276 274 273 272 272 270
272 268 265 264 263 264 264 264 267 267 265 264 263 266 268 268 268 268 268 268 269 270 272 273 276 277 277 276 277 278 279 280 278 279 279 274 272 272 274 273 273 275 276 275 274 274 273 273 272
275 274 269 266 265 265 266 267 268 267 266 264 264 267 269 269 270 270 270 269 270 270 271 272 273 274 274 274 275 276 278 278 277 276 276 275 273 275 276 275 273 274 275 274 274 274 274 273 273
276 275 272 270 269 268 268 268 268 266 265 267 267 266 268 269 270 272 272 271 270 269 269 269 271 272 271 271 272 273 274 275 275 274 274 274 274 276 277 276 275 275 276 275 274 272 273 273 273
279 278 275 273 273 273 271 270 272 268 268 269 269 269 268 269 270 273 274 272 270 269 269 269 270 270 269 269 270 272 273 274 274 273 273 274 275 275 278 276 274 275 275 274 273 275 275 273 273
280 282 282 281 279 276 275 273 276 274 273 272 273 272 270 271 273 275 275 272 269 269 270 270 269 269 269 268 269 271 272 273 275 273 272 273 275 276 276 277 275 275 275 274 273 273 275 276 274
281 280 280 281 283 281 278 278 280 281 279 276 276 275 274 274 275 276 275 269 267 268 269 271 271 271 270 270 270 271 271 271 273 273 273 273 274 275 276 275 274 274 275 274 273 274 274 276 275
278 279 278 279 280 280 280 281 283 284 283 279 277 277 275 275 275 275 275 269 267 267 269 270 271 271 271 272 272 272 272 272 273 273 273 273 272 272 274 274 273 272 272 275 275 275 274 274 274
279 278 277 278 280 280 279 280 282 283 282 281 278 277 276 275 275 275 275 272 269 268 268 269 271 271 272 273 273 273 274 273 273 273 273 272 272 272 272 272 272 271 271 272 274 274 273 273 272
279 277 276 277 277 278 279 280 281 282 282 280 279 279 278 276 275 275 275 272 269 268 268 269 271 272 273 274 275 275 274 275 276 274 272 271 271 272 272 272 271 270 271 272 273 273 271 272 271
276 276 276 278 278 277 278 281 281 281 281 281 280 279 279 277 275 275 274 272 270 269 270 270 273 274 274 275 275 276 275 276 276 275 273 271 271 272 272 273 272 271 270 270 271 271 271 271 271
Height
5875 5875 5876 5877 5879 5879 5878 5879 5879 5879 5879 5880 5880 5880 5880 5881 5882 5884 5882 5880 5880 5880 5879 5879 5879 5879 5879 5879 5879 5878 5878 5878 5877 5877 5877 5876 5876 5876 5875 5875 5874 5874 5874 5874 5873 5873 5873 5873 5873
5874 5875 5876 5877 5877 5878 5878 5878 5878 5879 5879 5879 5879 5880 5880 5880 5880 5880 5880 5880 5880 5879 5879 5879 5878 5879 5879 5879 5879 5878 5878 5878 5877 5877 5876 5876 5876 5875 5875 5875 5874 5874 5874 5874 5873 5873 5873 5873 5872
5874 5875 5877 5876 5876 5877 5878 5878 5878 5878 5878 5879 5879 5879 5879 5879 5879 5879 5879 5879 5879 5879 5879 5878 5878 5879 5879 5879 5879 5878 5878 5877 5877 5877 5876 5876 5875 5875 5875 5875 5875 5874 5873 5873 5873 5873 5872 5872 5872
5874 5875 5876 5876 5876 5876 5877 5877 5877 5877 5878 5878 5878 5878 5878 5878 5878 5878 5878 5878 5879 5879 5878 5878 5878 5879 5879 5879 5878 5878 5877 5877 5877 5876 5876 5876 5875 5874 5874 5874 5874 5874 5873 5873 5872 5872 5872 5871 5871
5874 5875 5875 5875 5875 5875 5875 5876 5876 5877 5877 5877 5878 5877 5877 5878 5877 5878 5878 5878 5878 5878 5878 5878 5878 5878 5878 5878 5878 5877 5877 5876 5876 5875 5875 5875 5874 5874 5874 5873 5873 5873 5872 5872 5872 5871 5871 5871 5870
5874 5874 5875 5874 5874 5875 5875 5875 5875 5876 5876 5876 5877 5877 5876 5877 5877 5877 5877 5877 5877 5877 5877 5877 5878 5878 5878 5878 5878 5877 5876 5875 5875 5874 5874 5874 5874 5873 5873 5872 5872 5872 5872 5871 5871 5870 5870 5870 5869
5874 5874 5873 5874 5874 5874 5874 5874 5874 5875 5875 5875 5876 5876 5876 5876 5876 5876 5876 5876 5877 5876 5877 5877 5877 5877 5877 5877 5877 5876 5875 5875 5874 5873 5873 5873 5873 5872 5872 5872 5871 5871 5871 5870 5869 5869 5869 5868 5868
5873 5874 5873 5873 5873 5874 5874 5874 5874 5874 5875 5875 5875 5875 5875 5875 5875 5875 5875 5875 5875 5875 5875 5875 5875 5876 5876 5876 5875 5875 5874 5874 5873 5872 5872 5872 5871 5871 5871 5870 5870 5870 5869 5869 5868 5868 5867 5867 5866
5872 5874 5873 5873 5873 5873 5873 5873 5873 5873 5874 5874 5874 5874 5874 5874 5874 5874 5874 5874 5874 5874 5874 5874 5874 5874 5874 5874 5874 5873 5873 5872 5872 5871 5871 5870 5870 5869 5869 5869 5869 5868 5868 5867 5867 5866 5866 5865 5865
5872 5873 5872 5872 5872 5872 5872 5872 5873 5873 5873 5873 5873 5873 5873 5873 5873 5873 5873 5873 5873 5873 5873 5873 5873 5873 5873 5873 5872 5872 5871 5871 5870 5870 5869 5869 5868 5868 5867 5867 5867 5867 5866 5865 5865 5864 5864 5863 5863
5871 5871 5871 5871 5871 5871 5871 5871 5872 5872 5872 5872 5872 5873 5873 5872 5872 5872 5872 5872 5872 5871 5871 5871 5872 5871 5871 5871 5870 5870 5870 5869 5869 5868 5867 5867 5866 5866 5865 5865 5865 5864 5864 5863 5863 5862 5862 5861 5860
5870 5870 5870 5870 5870 5870 5870 5870 5871 5871 5871 5871 5871 5871 5871 5871 5870 5870 5870 5870 5870 5870 5870 5870 5870 5870 5869 5869 5869 5868 5868 5867 5867 5866 5865 5865 5864 5864 5863 5863 5862 5862 5861 5861 5861 5860 5859 5859 5858
5868 5868 5868 5868 5868 5869 5869 5869 5869 5869 5869 5869 5869 5869 5869 5869 5869 5868 5869 5869 5869 5869 5869 5868 5868 5868 5868 5867 5867 5866 5866 5865 5865 5864 5863 5863 5862 5861 5861 5860 5860 5859 5859 5858 5858 5858 5857 5856 5856
5867 5867 5867 5867 5867 5867 5868 5868 5868 5868 5868 5867 5867 5867 5867 5867 5867 5867 5867 5867 5867 5867 5867 5866 5866 5866 5865 5865 5865 5864 5863 5863 5862 5861 5861 5860 5860 5859 5859 5858 5857 5857 5856 5856 5855 5855 5854 5854 5853
5865 5866 5866 5865 5866 5866 5866 5866 5866 5866 5866 5865 5865 5865 5865 5865 5865 5865 5865 5865 5865 5864 5864 5864 5864 5864 5863 5863 5862 5861 5861 5860 5860 5859 5858 5858 5857 5856 5856 5855 5855 5854 5853 5853 5852 5852 5851 5851 5850
5863 5864 5864 5864 5863 5864 5865 5865 5864 5863 5863 5863 5863 5863 5863 5863 5863 5863 5863 5862 5862 5862 5862 5862 5861 5861 5861 5860 5859 5859 5858 5857 5857 5856 5855 5855 5854 5853 5853 5852 5852 5851 5851 5850 5850 5849 5848 5848 5847
5860 5861 5861 5861 5861 5861 5862 5862 5862 5861 5861 5861 5861 5860 5860 5860 5860 5860 5860 5860 5860 5860 5859 5859 5859 5858 5857 5857 5856 5856 5855 5854 5854 5853 5852 5852 5851 5851 5850 5849 5849 5848 5848 5847 5847 5846 5845 5845 5844
5858 5858 5858 5858 5858 5859 5859 5859 5859 5858 5858 5858 5858 5858 5858 5857 5857 5857 5857 5857 5857 5857 5856 5856 5855 5855 5854 5854 5853 5852 5852 5851 5850 5850 5849 5848 5848 5847 5847 5846 5846 5845 5844 5844 5843 5843 5842 5842 5841
5854 5854 5854 5855 5855 5856 5856 5856 5855 5855 5855 5855 5855 5855 5855 5854 5854 5854 5854 5853 5853 5853 5853 5852 5852 5852 5851 5850 5850 5849 5848 5847 5847 5846 5845 5844 5844 5844 5843 5842 5842 5842 5841 5840 5840 5839 5839 5838 5837
5851 5851 5851 5852 5852 5852 5852 5852 5852 5852 5852 5852 5852 5852 5851 5851 5851 5850 5850 5850 5850 5849 5849 5849 5848 5848 5847 5847 5846 5845 5844 5844 5843 5842 5841 5841 5840 5840 5840 5839 5839 5838 5838 5837 5836 5836 5835 5834 5834
5847 5847 5847 5848 5848 5848 5848 5849 5849 5848 5848 5848 5848 5847 5847 5847 5847 5846 5846 5846 5845 5845 5845 5844 5844 5843 5843 5842 5842 5841 5841 5840 5839 5838 5837 5837 5836 5836 5836 5835 5835 5834 5834 5833 5832 5832 5831 5830 5830
5843 5843 5843 5843 5844 5844 5845 5845 5845 5844 5844 5844 5843 5843 5843 5842 5842 5841 5841 5841 5840 5840 5840 5839 5839 5839 5838 5838 5837 5837 5836 5836 5835 5834 5834 5833 5832 5832 5831 5831 5830 5830 5829 5829 5828 5827 5826 5826 5825
5839 5839 5839 5839 5839 5840 5840 5840 5841 5840 5839 5839 5838 5838 5837 5837 5837 5836 5836 5835 5835 5834 5834 5834 5834 5834 5833 5833 5832 5832 5831 5831 5830 5830 5829 5828 5828 5827 5827 5826 5825 5825 5824 5823 5823 5822 5822 5821 5820
5835 5835 5835 5835 5835 5835 5835 5835 5835 5835 5834 5834 5833 5833 5832 5831 5831 5830 5830 5829 5829 5829 5829 5828 5828 5828 5828 5827 5827 5826 5826 5825 5825 5824 5824 5823 5823 5822 5822 5821 5820 5819 5819 5818 5818 5817 5817 5816 5815
5832 5832 5832 5831 5831 5831 5831 5830 5831 5829 5829 5828 5828 5827 5826 5826 5825 5824 5824 5823 5823 5823 5823 5822 5822 5822 5821 5821 5821 5820 5820 5819 5819 5818 5818 5818 5817 5817 5816 5815 5815 5814 5813 5812 5812 5812 5811 5811 5810
5828 5828 5829 5828 5827 5826 5825 5825 5826 5824 5823 5822 5822 5821 5820 5820 5819 5818 5817 5816 5816 5816 5816 5816 5816 5815 5815 5815 5814 5814 5813 5813 5813 5812 5812 5811 5811 5810 5810 5809 5809 5808 5807 5807 5806 5806 5805 5805 5804
5823 5823 5823 5823 5821 5821 5821 5820 5820 5819 5818 5817 5816 5815 5814 5814 5813 5812 5811 5810 5810 5810 5810 5810 5810 5809 5809 5808 5808 5807 5806 5806 5805 5805 5805 5804 5804 5803 5803 5802 5802 5801 5801 5800 5800 5799 5798 5798 5797
5819 5818 5818 5817 5816 5816 5816 5815 5815 5813 5812 5811 5810 5809 5808 5808 5807 5806 5805 5804 5804 5804 5804 5804 5803 5803 5802 5802 5801 5800 5799 5799 5798 5798 5797 5797 5796 5796 5795 5795 5794 5794 5793 5793 5792 5792 5791 5791 5790
5814 5813 5812 5811 5811 5811 5810 5812 5809 5807 5806 5806 5805 5804 5803 5802 5801 5800 5799 5798 5797 5797 5797 5797 5796 5796 5795 5795 5794 5793 5792 5791 5790 5790 5789 5789 5788 5787 5787 5787 5786 5786 5786 5785 5785 5784 5783 5783 5782
5807 5807 5806 5806 5805 5804 5804 5807 5802 5801 5800 5799 5798 5797 5796 5795 5794 5793 5792 5792 5791 5791 5791 5790 5790 5789 5788 5787 5786 5785 5784 5783 5782 5781 5781 5780 5780 5779 5779 5778 5778 5777 5777 5776 5776 5775 5775 5775 5774